Find Starlink 31639

NORAD ID: 59261 Int'l Des: 2024-050 Owner: SPXS Country: US Constellation: starlink operational
LEOCIRCULAR

当前视图

正在加载3D地球...

About Starlink 31639

Starlink 31639 (NORAD 59261) is a starlink constellation satellite (v2 mini) launched Mar 19, 2024 by SPXS of US. It operates in LEO, CIRCULAR orbit with a mass of 730.00 kg.

即将过境

Passes for default location (London). Set your location on the main map for personalized predictions.

高度历史

Loading altitude history...

两行轨道根数

1 59261U 24050H 26237.07986354 .00000586 00000-0 30658-4 0 9991
2 59261 53.1587 117.8625 0001225 92.5849 267.5293 15.31705031136348
Epoch: Aug 25, 2026 • Age: 18 hours

当前状态

高度 476.3 km
远地点 / 近地点 N/A
速度 7.63 km/s
星下点 52.66°N, 74.52°W
发射日期 Mar 19, 2024
运行时间 2.4 years
类型 internet

技术详情

分类 Payload
质量 730.00 kg
干质量 700.00 kg
总质量 730.00 kg
长度 0.30 m
直径 4.10 m
跨度 29.00 m
形状 Box + pan
制造商 SPXS
平台类型 Starlink V2M
阶段状态 In Orbit
所有者/国家 SPXS/US

Most Searched